Location: New Town
(33.2710°N, 90.7534°W)
Time: 13:56:21
(UTC+00:00)

Tiros 1 despin weight - All Passes

Search period start: 08 May 2021 00:00
Search period end: 18 May 2021 00:00
Orbit: 593 x 642 km, 48.2° (Epoch: 07 May)

Date Brightness Start Highest point End Pass type
(mag) Time Alt. Az. Time Alt. Az. Time Alt. Az.
08 May - 03:14:40 10° SW 03:19:18 72° SE 03:24:00 10° NE visible
08 May - 04:57:20 10° W 05:01:13 25° NNW 05:05:07 10° NNE visible
08 May - 06:41:57 10° NNW 06:44:05 13° N 06:46:14 10° NNE visible
08 May - 08:24:08 10° NNW 08:27:12 17° NNE 08:30:14 10° ENE visible
08 May - 10:05:00 10° NW 10:09:34 54° NE 10:14:02 10° ESE visible
08 May - 11:47:14 10° W 11:50:49 23° SW 11:54:21 10° S daylight
09 May - 01:50:50 10° S 01:54:22 22° SE 01:57:57 10° E visible
09 May - 03:31:02 10° WSW 03:35:38 58° NW 03:40:17 10° NE visible
09 May - 05:14:47 10° WNW 05:17:57 18° NNW 05:21:08 10° NNE visible
09 May - 06:58:57 10° NNW 07:01:02 13° N 07:03:09 10° NNE visible
09 May - 08:40:10 10° NNW 08:43:57 24° NNE 08:47:42 10° ENE visible
09 May - 10:21:16 10° NW 10:25:54 76° SW 10:30:26 10° SE visible
10 May - 02:06:02 10° SSW 02:10:28 46° SE 02:14:57 10° ENE visible
10 May - 03:47:54 10° W 03:52:07 33° NNW 03:56:22 10° NE visible
10 May - 05:32:22 10° NW 05:34:50 14° N 05:37:16 10° NNE visible
10 May - 07:15:20 10° NNW 07:17:58 15° NNE 07:20:36 10° NE visible
10 May - 08:56:12 10° NW 09:00:33 38° NNE 09:04:51 10° E visible
10 May - 10:37:51 10° WNW 10:42:04 35° SW 10:46:14 10° SSE visible
11 May - 00:43:23 10° SSE 00:45:40 14° SE 00:47:58 10° E daylight
11 May - 02:22:03 10° SW 02:26:41 86° NW 02:31:24 10° NE visible
11 May - 04:05:10 10° WNW 04:08:47 21° NNW 04:12:24 10° NNE visible
11 May - 05:49:42 10° NNW 05:51:45 13° N 05:53:48 10° NNE visible
11 May - 07:31:24 10° NNW 07:34:48 19° NNE 07:38:10 10° ENE visible
11 May - 09:12:20 10° NW 09:17:00 71° NE 09:21:34 10° ESE visible
11 May - 10:55:12 10° W 10:58:07 17° SW 11:01:00 10° SSW daylight
12 May - 00:57:40 10° SSW 01:01:40 29° SE 01:05:42 10° ENE daylight
12 May - 02:38:37 10° WSW 02:43:05 45° NNW 02:47:36 10° NE visible
12 May - 04:22:42 10° NW 04:25:34 16° NNW 04:28:26 10° NNE visible
12 May - 06:06:25 10° NNW 06:08:42 13° N 06:10:59 10° NE visible
12 May - 07:47:25 10° NNW 07:51:30 29° NNE 07:55:31 10° E visible
12 May - 09:28:42 10° WNW 09:33:16 56° SW 09:37:45 10° SE visible
13 May - 01:13:15 10° SW 01:17:49 63° SE 01:22:27 10° ENE visible
13 May - 02:55:40 10° W 02:59:38 27° NNW 03:03:39 10° NNE visible
13 May - 04:40:14 10° NW 04:42:28 13° N 04:44:42 10° NNE visible
13 May - 06:22:39 10° NNW 06:25:36 16° NNE 06:28:32 10° NE visible
13 May - 08:03:30 10° NW 08:08:02 48° NNE 08:12:30 10° ESE visible
13 May - 09:45:31 10° WNW 09:49:23 26° SW 09:53:12 10° S visible
13 May - 23:49:44 10° S 23:52:56 19° SE 23:56:09 10° E daylight
14 May - 01:29:30 10° WSW 01:34:06 65° NW 01:38:46 10° NE visible
14 May - 03:13:03 10° WNW 03:16:21 19° NNW 03:19:40 10° NNE visible
14 May - 04:57:20 10° NNW 04:59:25 13° N 05:01:31 10° NNE visible
14 May - 06:38:40 10° NNW 06:42:22 22° NNE 06:46:03 10° ENE visible
14 May - 08:19:43 10° NW 08:24:24 87° SW 08:29:01 10° SE visible
14 May - 10:03:38 10° WSW 10:05:23 12° SW 10:07:07 10° SSW visible
15 May - 00:04:42 10° SSW 00:08:59 39° SE 00:13:20 10° ENE daylight
15 May - 01:46:17 10° W 01:50:33 36° NNW 01:54:54 10° NE visible
15 May - 03:30:37 10° NW 03:33:12 14° N 03:35:46 10° NNE visible
15 May - 05:13:49 10° NNW 05:16:21 14° N 05:18:54 10° NE visible
15 May - 06:54:42 10° NW 06:59:00 35° NNE 07:03:16 10° E visible
15 May - 08:36:13 10° WNW 08:40:36 41° SW 08:44:56 10° SSE night (unlit)
15 May - 22:42:48 10° SE 22:44:14 11° SE 22:45:40 10° ESE daylight
16 May - 00:20:35 10° SW 00:25:11 84° SE 00:29:52 10° NE daylight
16 May - 02:03:28 10° WNW 02:07:11 23° NNW 02:10:55 10° NNE visible
16 May - 03:48:02 10° NNW 03:50:08 13° N 03:52:13 10° NNE visible
16 May - 05:29:55 10° NNW 05:33:12 18° NNE 05:36:28 10° ENE visible
16 May - 07:10:49 10° NW 07:15:28 63° NE 07:20:05 10° ESE visible
16 May - 08:53:20 10° W 08:56:40 20° SW 08:59:59 10° S night (unlit)
16 May - 22:56:28 10° S 23:00:13 25° SE 23:04:01 10° ENE daylight
17 May - 00:37:03 10° WSW 00:41:33 50° NNW 00:46:06 10° NE daylight
17 May - 02:20:59 10° NW 02:23:57 16° NNW 02:26:57 10° NNE visible
17 May - 04:04:52 10° NNW 04:07:05 13° N 04:09:17 10° NE visible
17 May - 05:45:57 10° NNW 05:49:55 26° NNE 05:53:52 10° E visible
17 May - 07:27:07 10° WNW 07:31:47 65° SW 07:36:22 10° SE night (unlit)
17 May - 23:11:52 10° SSW 23:16:19 54° SE 23:20:51 10° ENE daylight
